Theta_e
317 317 317 316 316 317 317 318 318 318 318 319 319 319 319 320 320 320 321 321 321 323 323 324 325 325 325 325 326 324 322 317 314 310 310 312 324 335 336 337 337 337 329 311 308 308 307 309 308 307 310 310 307 309 306 308 305 310 304 303 299 302 299 303 301 301 303 302 301 299 301 303 301 301 303 303 303 303 303 303 305 304 304 307 306 308 310 319
316 316 316 316 317 317 317 317 317 317 318 318 318 318 319 319 319 319 320 320 321 322 323 324 325 325 325 325 325 322 320 318 312 314 314 322 330 334 337 338 338 333 323 311 310 308 307 307 306 308 309 306 308 306 306 307 306 306 302 302 299 301 303 304 304 303 302 303 303 302 301 302 303 303 303 302 303 302 302 304 304 305 307 307 306 309 309 319
315 315 315 316 316 315 316 316 317 317 317 318 318 318 318 318 318 319 319 320 321 322 323 323 324 325 325 325 323 319 316 313 309 306 311 323 330 336 337 337 337 329 315 312 309 310 308 308 307 307 306 305 305 304 308 303 307 301 305 299 300 306 302 301 302 302 301 300 302 301 300 300 301 303 304 301 303 301 302 303 303 303 305 306 307 309 310 318
314 314 315 315 315 315 315 316 316 317 317 318 318 319 318 318 319 319 319 320 320 321 322 323 324 325 324 324 322 318 313 310 303 307 314 323 331 334 334 335 332 323 311 309 308 308 306 307 306 308 306 305 304 304 304 303 305 301 301 300 301 299 302 300 300 300 299 299 302 302 299 300 301 302 303 302 301 302 304 306 306 305 306 308 309 309 312 316
314 315 315 314 314 315 315 316 317 317 317 318 318 318 319 319 319 319 319 320 320 321 322 323 324 324 324 325 319 318 316 300 301 306 316 326 331 332 332 331 322 310 310 307 308 307 308 308 307 307 307 302 304 304 302 302 302 304 300 299 299 298 302 299 300 298 299 296 301 300 300 301 301 301 302 302 301 302 305 307 308 308 308 308 308 311 313 315
315 315 314 313 314 314 315 315 316 316 317 318 318 318 319 319 319 319 319 319 320 321 322 323 324 324 324 322 321 312 308 293 304 313 323 327 330 331 327 325 316 308 309 309 308 307 308 307 307 305 303 303 301 301 301 301 300 300 299 299 299 299 301 299 299 298 297 300 301 300 303 301 301 302 302 302 303 305 303 303 305 305 304 306 310 311 312 315
314 314 314 313 313 313 313 314 314 316 317 317 318 318 319 318 318 319 319 319 320 321 322 323 323 324 323 319 313 311 305 303 307 314 323 326 327 324 323 317 312 309 310 310 308 308 306 306 306 303 302 301 299 301 300 301 300 303 300 299 299 298 300 297 299 295 297 299 301 301 301 302 300 300 300 299 304 306 303 302 304 304 303 303 308 310 312 314
314 313 313 313 312 312 313 313 313 315 315 316 316 318 318 318 319 319 319 319 320 320 322 323 323 323 320 316 312 304 304 303 313 315 320 322 313 309 322 311 310 315 310 307 307 307 307 305 304 302 302 301 301 302 300 301 302 302 300 299 298 298 299 298 297 297 296 298 298 299 300 301 301 301 298 301 304 306 305 304 304 303 303 303 307 309 311 314
313 313 312 312 311 312 312 312 313 314 314 315 316 317 318 319 319 319 319 319 320 320 322 322 322 322 317 311 306 301 301 306 311 316 317 313 309 308 315 314 311 311 307 307 305 308 308 303 303 304 300 301 301 301 300 301 299 302 300 300 299 300 299 298 297 297 298 300 299 300 300 300 299 299 299 303 306 303 304 303 305 304 304 305 306 308 310 313
314 314 313 312 313 312 312 312 313 313 314 315 315 317 318 318 318 319 319 320 320 320 321 322 321 319 309 311 305 298 304 315 318 317 311 308 307 310 313 312 310 310 310 306 308 308 308 305 306 306 306 301 302 300 298 302 299 300 300 301 301 299 299 298 300 299 298 301 299 300 300 300 299 299 301 304 303 300 303 304 303 304 305 306 307 308 309 311
315 315 314 313 313 313 313 313 313 314 314 315 315 316 317 317 318 318 319 320 320 320 321 321 319 314 313 306 301 298 310 318 317 314 309 307 310 312 312 311 309 310 310 308 308 306 306 307 307 305 307 302 303 300 300 300 300 300 300 300 301 300 300 300 300 300 301 300 298 301 299 299 299 299 301 304 301 301 303 304 304 304 306 307 307 307 308 308
316 316 315 314 314 313 314 314 314 314 314 315 315 316 316 317 318 318 319 320 320 321 321 320 318 308 305 305 301 303 303 315 314 311 311 311 311 309 310 308 308 315 312 308 309 309 308 307 308 305 301 304 300 301 300 300 300 299 299 300 300 301 301 300 301 300 298 301 299 300 300 299 298 299 304 300 301 301 302 303 304 304 305 307 307 306 307 308
316 316 316 315 315 315 314 315 315 315 315 316 315 315 316 317 318 318 319 320 321 321 321 320 316 309 307 300 302 307 309 312 313 310 310 311 309 308 308 308 308 308 312 310 309 310 306 308 309 304 303 304 301 300 301 302 299 299 301 300 299 300 299 299 298 298 299 300 298 299 294 299 301 303 305 301 301 301 301 303 304 305 305 306 306 305 306 308
317 317 317 316 315 315 315 315 315 315 316 316 316 316 316 317 318 318 319 320 321 322 321 319 316 306 304 300 308 310 311 315 310 311 312 311 311 312 311 311 310 310 312 309 307 307 307 306 309 305 306 303 301 303 302 302 301 300 298 300 298 296 297 299 300 298 300 299 298 300 295 298 302 304 302 299 299 301 302 304 305 305 304 305 305 305 306 307
318 317 317 317 316 316 316 316 316 316 316 316 316 316 317 317 318 319 320 321 321 320 319 318 312 306 301 300 304 313 317 315 312 312 311 309 310 309 309 311 309 307 307 308 308 305 306 310 310 305 302 300 303 302 300 300 299 298 296 296 297 295 298 299 298 298 299 298 299 300 295 298 302 305 300 299 298 299 301 303 304 304 304 304 304 304 305 306
318 318 317 317 317 316 317 317 317 317 316 316 316 316 317 318 318 319 320 320 319 315 318 319 309 306 300 298 308 320 313 310 311 312 311 309 313 310 311 308 309 308 308 307 306 306 309 309 303 301 302 301 302 301 299 298 299 298 296 296 294 295 297 297 297 296 296 297 299 299 297 299 300 302 300 298 299 299 300 302 304 304 303 303 303 304 304 305
318 318 318 318 317 317 317 317 317 317 317 317 317 317 317 318 319 319 319 318 315 313 316 307 303 302 297 301 308 303 307 310 309 312 310 307 309 310 310 310 308 307 309 308 311 310 308 306 300 302 302 301 300 302 296 294 294 296 296 295 296 294 296 294 296 296 298 297 298 299 296 298 301 302 302 298 299 299 300 302 304 304 304 304 304 304 303 304
319 318 318 318 318 318 318 317 317 317 317 317 316 317 318 319 319 316 319 315 312 312 309 307 310 304 298 300 300 302 305 310 311 307 308 306 307 308 309 307 303 308 309 307 309 306 306 303 303 301 301 300 300 299 293 291 294 294 294 294 294 293 293 295 296 296 296 296 296 298 297 298 301 303 304 305 301 300 300 302 303 304 304 304 304 303 303 304
319 319 318 318 318 318 318 318 318 317 317 317 316 316 317 318 316 316 310 309 301 300 297 300 298 294 294 298 304 307 308 308 309 309 307 309 308 308 308 309 310 306 305 303 302 304 305 304 305 300 297 297 297 298 296 296 296 295 296 295 295 293 295 294 297 296 296 297 296 297 296 298 301 302 304 304 303 301 301 302 302 302 303 303 303 304 305 305
319 319 319 319 318 318 318 318 318 317 316 314 316 312 308 306 305 303 307 304 301 298 299 299 300 300 300 300 306 308 309 309 307 308 310 307 308 308 306 307 309 306 301 299 302 301 301 299 296 295 298 300 300 300 297 295 297 297 297 296 294 294 295 296 295 295 295 296 297 298 298 298 299 301 303 304 303 299 300 300 301 302 303 303 304 304 305 305
320 320 319 319 318 318 318 318 318 317 316 314 312 301 297 300 294 293 299 302 304 299 303 301 301 301 303 305 307 306 305 305 308 309 308 308 307 307 302 305 302 299 300 297 302 300 301 297 298 299 298 298 299 297 296 295 297 296 296 295 294 294 293 297 296 294 296 295 297 297 296 298 299 301 302 304 302 301 301 301 302 302 303 304 305 305 306 307
320 320 319 319 319 318 319 318 318 317 315 314 310 300 307 300 301 302 302 297 302 303 303 304 302 304 304 305 307 307 307 304 305 307 310 308 306 302 301 302 299 297 298 299 299 298 297 295 298 299 296 297 296 296 297 297 295 296 295 295 294 295 297 297 294 294 295 295 295 297 295 296 299 300 302 302 302 303 304 304 304 304 305 305 305 305 306 307
320 320 320 319 319 319 319 319 317 316 315 311 308 304 307 311 308 308 305 301 300 300 302 302 301 302 303 304 305 305 303 300 300 305 307 308 303 303 301 299 298 298 297 299 295 296 292 296 299 296 298 297 294 295 296 296 296 296 295 293 293 296 292 292 294 294 294 295 295 296 293 296 299 300 301 303 303 303 304 304 304 304 303 304 305 306 307 306
320 320 320 319 319 319 319 318 318 314 312 309 306 307 309 309 308 309 307 296 295 297 301 303 302 302 303 301 307 306 302 301 301 303 309 305 303 302 301 300 297 297 296 297 297 295 294 297 294 297 297 298 295 294 295 295 294 296 297 296 295 294 295 293 294 295 294 294 292 293 294 295 298 297 300 302 300 300 301 302 303 303 304 305 306 307 307 305
320 319 320 319 318 320 318 317 313 311 311 308 307 312 310 309 310 310 304 295 296 297 303 301 303 303 303 309 307 304 302 300 302 305 309 306 300 300 300 298 299 296 297 297 295 295 295 296 296 295 296 296 296 293 296 297 293 295 296 297 296 296 295 293 294 294 294 294 293 293 289 292 297 298 298 302 301 301 303 302 303 304 305 304 302 303 305 306
320 319 319 319 319 319 318 312 311 312 308 308 311 312 311 308 308 308 302 291 288 296 297 294 305 299 311 303 307 305 301 298 302 303 306 307 308 302 298 298 297 295 295 295 295 297 296 295 299 296 295 296 296 295 296 297 294 293 294 297 297 296 295 295 293 294 290 289 293 292 288 286 295 295 298 300 300 300 303 303 303 305 306 305 305 305 305 304
320 319 319 319 319 318 313 310 314 312 306 308 312 312 312 311 311 311 296 290 286 298 294 299 297 299 308 302 305 299 290 294 304 305 305 305 303 305 299 297 295 296 297 298 293 292 295 293 294 297 296 296 294 293 295 296 295 292 293 292 295 295 294 295 294 294 293 294 296 291 294 288 288 295 298 299 299 299 300 302 303 305 305 306 306 306 306 306
320 320 319 320 319 317 315 312 310 308 308 311 312 312 312 313 313 308 296 282 282 302 296 294 299 306 305 302 303 296 295 299 297 301 303 304 304 302 299 296 296 296 295 295 288 297 295 294 295 294 295 294 294 296 299 297 296 294 291 294 295 295 297 295 295 294 293 290 289 290 296 288 289 295 297 297 296 298 300 302 304 306 307 306 306 305 305 305
320 319 319 319 319 318 314 312 311 311 313 313 312 313 312 312 309 301 292 281 297 296 309 295 308 303 300 301 297 296 296 298 295 299 304 303 304 302 297 298 298 298 296 296 294 294 293 296 297 298 296 294 295 290 295 297 295 291 292 294 294 295 295 296 294 294 292 289 286 289 293 287 289 295 295 295 296 297 300 302 304 306 306 307 305 304 303 302
319 319 319 319 318 315 314 314 313 313 313 313 313 313 314 311 306 292 284 278 301 291 297 298 298 295 299 295 293 296 295 296 297 300 302 300 302 302 296 300 298 296 296 295 295 295 293 294 295 296 296 296 292 291 291 295 294 295 296 297 296 295 295 294 294 293 291 285 288 291 293 291 285 293 295 294 298 300 302 302 303 305 306 304 302 301 302 301
318 319 318 318 314 314 314 309 313 311 312 312 314 314 310 305 293 288 281 290 299 296 296 295 293 298 294 293 290 293 295 294 297 299 297 300 298 299 298 297 300 297 294 294 294 295 294 294 295 296 293 293 297 293 294 292 295 297 297 296 295 292 293 292 290 291 285 284 289 288 293 293 284 290 296 300 298 296 300 302 303 304 306 306 303 301 300 299
317 318 318 318 319 317 310 309 312 311 312 312 312 310 306 289 294 284 285 300 289 294 295 293 294 295 294 296 295 292 293 295 297 297 296 296 296 294 295 292 294 288 288 290 290 293 292 294 296 294 295 296 297 295 293 295 294 296 296 294 288 286 286 284 287 283 284 284 287 288 290 287 287 292 297 298 299 300 300 300 303 305 305 306 302 301 300 300
316 316 317 318 315 314 316 314 312 311 311 310 308 305 295 286 281 289 292 294 291 298 292 297 294 294 294 293 292 293 295 292 296 296 297 296 296 296 299 296 298 295 287 292 291 288 292 294 293 296 295 296 299 293 291 290 293 294 293 291 287 283 282 279 283 282 282 286 287 287 291 286 292 295 299 298 300 302 302 302 303 303 304 305 305 301 299 300
317 317 316 317 318 316 316 314 313 312 309 309 304 297 292 283 283 296 294 296 295 293 295 294 293 294 294 291 293 294 290 293 294 294 296 294 294 293 295 296 295 293 293 290 289 288 285 285 291 293 292 298 297 297 297 295 293 293 299 294 290 288 284 279 282 280 283 286 284 287 285 285 287 294 298 300 302 303 303 303 303 303 303 303 303 302 299 299
316 317 317 317 316 317 314 314 313 312 309 305 298 292 284 284 290 288 292 296 295 295 293 295 293 292 291 292 293 294 295 290 295 294 294 293 291 293 293 293 296 295 295 288 291 289 288 289 293 298 296 298 296 299 300 297 295 296 296 296 289 288 292 284 286 285 283 284 285 283 285 292 293 298 298 298 298 299 299 300 300 300 302 304 304 302 300 299
315 315 317 313 313 316 315 314 314 312 307 301 292 285 285 289 287 298 295 303 297 294 292 293 294 291 290 291 293 293 295 293 293 295 293 294 296 293 297 296 295 295 292 288 293 286 286 286 291 294 293 296 297 297 297 297 287 293 293 289 291 294 293 285 281 281 281 283 281 289 288 291 296 296 298 300 298 299 298 298 299 300 302 303 304 306 302 300
311 313 308 312 313 315 314 314 313 310 306 299 289 285 290 292 298 299 301 298 299 296 293 290 290 290 289 288 291 291 293 296 293 293 290 295 291 294 294 296 299 297 297 295 290 297 289 289 289 292 290 293 291 294 298 295 297 293 287 292 293 297 296 290 283 284 283 281 283 286 285 288 289 286 295 296 296 298 299 299 300 301 303 302 303 304 302 302
309 310 310 310 314 316 316 314 312 308 302 295 286 290 295 292 300 300 300 299 295 298 294 293 294 295 290 290 289 291 293 291 291 292 290 292 289 300 295 295 298 298 298 299 293 294 294 286 290 289 291 294 294 296 295 296 296 295 293 302 292 286 285 290 286 279 280 279 282 287 287 287 289 290 295 295 295 297 299 301 300 300 301 302 303 302 302 302
309 307 301 309 317 317 315 314 311 304 299 290 286 287 292 295 301 299 300 301 299 299 294 295 293 295 295 291 292 292 292 288 293 290 289 291 288 297 295 298 296 298 299 298 293 294 295 287 288 289 291 293 294 295 287 291 295 296 296 293 296 293 290 286 286 287 286 282 280 283 287 285 296 294 296 297 299 300 300 301 301 301 302 303 304 304 301 301
303 300 298 311 317 317 315 312 305 301 296 287 288 288 297 293 297 302 302 301 296 296 294 296 298 293 294 294 294 290 292 293 292 291 292 294 291 297 295 299 297 296 298 298 296 299 291 293 285 289 291 292 288 292 290 293 289 290 292 291 291 289 293 293 291 286 285 283 282 282 281 288 296 299 298 299 300 301 301 301 303 303 303 303 304 304 303 303
306 300 301 312 316 316 313 306 298 293 292 295 296 293 295 293 298 299 301 302 301 303 299 296 297 293 294 292 290 294 291 292 292 291 292 293 292 290 297 298 298 294 297 297 296 296 289 289 286 288 288 287 292 296 296 297 296 293 292 290 292 289 287 284 283 288 285 286 282 282 282 289 299 296 300 300 302 302 302 302 303 303 303 302 301 301 303 303
300 291 297 313 315 314 305 294 294 298 295 293 292 296 294 300 297 298 299 300 300 299 300 299 297 297 295 294 295 292 291 291 292 292 293 291 295 295 297 299 298 298 295 291 293 298 295 293 289 286 288 290 293 291 289 291 294 295 295 293 296 294 293 288 283 284 284 286 285 287 284 288 301 298 298 300 299 298 298 298 300 303 302 300 301 300 300 302
296 295 307 311 314 310 301 294 296 294 292 296 302 298 301 298 297 299 297 297 296 299 297 297 297 296 297 297 297 293 293 288 290 290 293 293 295 297 299 296 300 299 300 295 297 295 292 288 286 287 293 292 292 291 292 292 294 293 293 292 293 291 293 291 290 289 288 287 285 286 282 288 297 294 295 295 295 293 293 294 299 299 300 300 300 301 299 298
298 298 302 309 313 310 298 288 288 291 294 298 298 297 301 298 297 295 296 298 297 297 296 296 297 299 296 298 296 292 295 287 291 292 292 295 294 299 297 299 299 297 297 295 293 297 289 290 289 286 285 287 289 291 292 293 293 291 291 293 294 295 295 293 288 290 287 288 288 287 282 288 292 293 295 293 295 297 298 296 295 298 300 300 300 300 299 298
298 300 300 303 307 305 294 297 294 292 293 293 294 294 294 296 299 299 298 297 300 299 298 296 298 300 296 296 294 294 295 293 289 294 295 294 295 296 297 298 299 297 300 303 297 301 291 291 288 282 280 279 279 280 283 285 287 291 292 294 294 294 293 289 286 288 285 288 288 287 287 294 297 294 296 296 296 294 298 298 295 296 299 300 301 300 298 298
293 286 295 298 299 297 299 302 298 295 292 292 291 294 296 293 297 300 300 298 300 299 299 301 301 300 296 295 292 292 292 296 293 289 292 292 296 296 294 293 297 297 296 296 299 299 289 289 291 289 287 286 288 289 292 295 291 286 288 290 292 293 295 293 290 287 284 287 287 289 291 292 295 296 296 298 295 297 300 300 298 299 297 297 298 298 298 298
297 289 291 286 296 296 291 296 295 295 292 295 288 293 291 293 295 295 301 294 299 298 298 299 297 295 294 295 293 293 294 293 294 292 291 293 294 294 293 293 293 292 293 295 296 294 288 287 290 291 291 293 295 295 293 295 290 291 290 290 292 292 291 289 287 285 291 287 284 291 294 289 292 296 298 298 298 298 299 300 300 299 301 301 299 298 295 295
287 292 295 297 290 286 288 289 293 293 296 296 292 295 292 292 293 291 296 299 300 300 295 296 297 297 297 295 295 290 293 292 292 288 293 293 293 294 294 292 293 292 290 289 295 293 288 287 292 291 289 292 295 293 293 293 295 294 293 293 291 292 290 286 287 291 292 288 286 293 295 291 294 297 299 300 300 300 300 300 301 301 299 298 297 296 297 297
296 295 293 298 289 291 290 291 293 292 291 293 292 293 291 291 291 294 294 294 296 295 297 289 293 296 297 298 296 292 293 287 287 292 290 290 292 291 290 291 292 291 292 288 291 288 288 287 289 289 289 291 292 293 293 292 292 291 292 293 294 292 291 290 290 292 293 291 294 294 295 295 298 299 300 301 303 302 302 302 299 298 300 302 301 299 299 299
289 289 288 294 292 291 288 290 290 288 287 291 287 290 292 291 291 294 296 294 289 293 298 293 295 297 297 297 295 292 294 295 294 290 294 293 289 291 291 293 288 285 289 287 291 291 290 287 291 287 286 287 290 292 289 289 290 289 292 292 293 293 292 292 292 293 293 293 294 294 293 293 299 302 302 303 303 302 301 299 299 301 303 303 303 302 301 299
297 297 297 290 287 288 289 289 290 289 287 288 286 289 290 291 291 295 293 298 294 292 295 293 296 296 297 296 296 295 298 298 298 297 297 295 291 294 293 290 294 286 287 287 288 288 290 286 288 287 285 285 289 289 290 289 288 287 287 290 291 291 289 291 289 293 291 290 292 292 290 291 297 301 300 300 300 299 299 300 301 302 302 302 303 304 304 303
297 299 297 295 286 291 288 290 290 290 285 289 288 289 290 290 293 295 290 294 296 298 298 297 297 295 294 294 293 295 299 300 300 301 300 299 300 297 298 297 296 291 287 288 288 288 288 287 286 286 284 284 288 289 288 287 286 284 285 289 292 292 294 294 294 295 294 295 290 288 289 296 298 300 299 300 300 299 300 301 302 303 303 303 303 303 304 305
Wind_Speed
5 4 4 3 3 3 3 4 3 3 3 3 3 3 4 5 6 6 6 7 7 8 8 9 9 9 9 9 10 10 9 2 2 0 3 2 3 8 9 8 8 9 1 2 3 5 2 1 3 1 2 1 3 0 1 2 3 2 4 3 5 1 7 6 9 9 4 4 8 8 9 7 7 5 3 2 4 1 2 5 3 2 5 1 4 3 4 6
5 3 3 3 4 3 3 3 3 2 2 2 3 3 3 5 5 6 6 6 7 8 9 9 9 9 10 9 9 8 5 2 5 6 3 2 6 8 9 8 8 8 2 3 4 4 4 2 3 1 3 2 2 2 2 2 3 1 2 3 4 4 1 2 3 6 1 0 7 7 5 5 3 8 5 6 6 5 6 6 5 6 7 6 4 5 7 8
4 3 4 3 3 2 2 2 2 1 2 2 3 3 3 4 4 5 6 6 7 8 9 9 10 10 10 10 9 5 2 3 3 3 1 2 7 9 8 8 7 6 3 2 0 1 1 3 3 3 3 4 4 3 1 3 3 2 3 4 2 1 3 1 2 5 3 3 6 7 5 4 1 3 5 5 3 3 9 8 5 9 10 11 9 8 9 11
4 4 4 3 2 2 2 2 2 2 2 3 3 4 4 4 4 5 5 6 7 8 9 9 9 10 10 10 8 3 2 3 2 1 1 5 8 8 7 7 6 4 3 6 1 3 4 6 4 0 3 3 2 2 1 3 3 2 3 3 1 2 2 3 2 2 1 3 3 5 5 4 3 2 6 3 5 9 9 10 10 10 11 9 11 10 10 12
6 5 4 3 3 2 2 2 2 2 2 2 4 4 4 4 5 5 5 6 7 8 8 9 10 10 10 9 6 1 1 3 4 1 3 6 8 7 7 5 5 2 1 5 5 5 2 2 2 3 1 4 1 2 3 1 3 3 3 4 2 2 1 3 2 2 0 2 3 4 8 6 5 2 6 6 10 8 7 7 9 10 3 8 11 11 10 12
6 6 4 3 3 2 1 1 1 1 2 3 4 4 4 5 6 6 6 6 7 8 9 9 10 10 10 7 2 2 3 4 1 1 3 7 8 6 5 2 2 2 3 3 1 2 2 3 2 2 2 2 2 2 2 1 3 3 1 1 1 2 2 2 2 2 3 3 6 7 3 5 7 4 3 7 14 1 4 5 3 3 3 4 6 11 11 12
6 5 4 4 3 2 1 0 1 2 3 4 5 5 5 6 6 7 7 7 7 8 9 10 9 10 11 2 1 2 1 2 1 1 5 8 8 4 3 2 1 1 4 2 1 2 2 4 1 3 3 4 1 4 1 2 1 3 4 4 2 1 3 2 1 2 2 3 4 2 3 5 5 9 2 8 14 6 4 2 2 2 1 2 8 12 13 14
6 5 4 3 2 2 1 1 1 3 3 3 5 6 6 6 7 8 8 7 7 8 9 9 9 10 7 2 1 1 0 2 2 1 5 7 4 5 4 1 1 1 6 4 1 4 2 2 6 3 3 1 3 3 1 3 2 3 5 2 3 0 2 0 0 3 1 1 2 1 6 3 3 2 2 10 13 9 3 2 1 0 1 4 7 10 12 11
4 4 5 3 3 2 2 1 1 2 4 4 4 6 7 7 8 8 8 7 7 8 8 9 9 10 2 2 2 4 3 1 2 4 6 5 4 3 3 2 4 4 5 2 3 1 3 1 2 4 3 5 2 5 1 3 4 3 4 4 4 2 2 2 3 1 1 1 2 5 3 1 1 1 8 16 10 3 2 2 1 2 4 7 9 9 10 11
7 6 4 4 4 3 2 2 3 3 4 5 5 6 7 7 8 9 9 8 7 7 8 9 10 8 2 2 2 5 2 3 2 3 4 3 3 2 6 3 1 4 2 3 1 1 2 5 1 5 11 7 1 2 3 3 3 2 5 3 4 2 2 2 2 3 1 1 2 4 3 1 1 1 8 2 3 2 2 4 1 4 8 8 6 6 7 9
9 8 5 4 4 3 4 4 3 3 4 5 5 5 7 8 8 9 9 9 8 7 7 8 10 5 1 0 5 3 1 1 2 3 3 2 1 3 4 3 3 3 7 3 4 2 3 5 3 4 2 3 6 3 1 3 2 3 3 4 5 3 2 2 2 2 2 3 1 1 1 1 0 2 12 3 2 1 4 5 4 5 7 6 6 5 5 6
9 9 6 4 4 4 4 3 3 3 4 4 5 5 6 7 8 9 9 10 8 8 8 7 8 2 1 1 2 2 1 2 3 3 1 2 4 2 2 2 2 2 1 4 3 2 2 5 3 1 3 4 4 4 5 3 1 3 3 4 2 2 3 2 1 2 3 2 1 0 3 8 7 11 9 4 2 2 2 5 6 8 7 6 5 5 6 8
9 8 7 5 4 4 4 4 4 4 4 5 5 6 6 7 8 9 9 9 7 8 7 7 6 2 2 3 2 0 2 1 0 1 6 5 5 2 4 3 5 5 2 5 3 1 1 2 3 10 3 1 4 1 6 2 2 2 5 2 3 2 5 4 1 2 2 1 1 2 6 6 13 20 6 3 3 1 4 7 7 6 6 5 5 6 7 7
8 8 7 6 5 5 5 4 3 4 5 6 6 6 7 8 9 9 8 10 11 9 8 8 3 2 1 2 2 1 1 0 1 1 4 4 1 3 4 4 5 6 6 9 5 2 0 3 5 11 3 2 4 3 6 3 1 2 1 2 1 1 2 3 2 2 5 2 2 2 7 7 2 5 2 3 1 5 9 9 7 7 6 5 6 6 8 9
9 8 8 7 6 6 6 5 5 5 6 7 7 7 8 10 9 9 9 9 8 8 8 6 2 2 2 3 2 1 1 2 1 2 3 2 7 5 4 3 9 8 6 6 4 1 0 1 2 3 4 2 4 5 4 2 3 2 3 3 1 3 2 2 3 1 5 3 1 3 9 11 11 6 5 2 1 3 8 10 9 8 7 6 6 8 9 9
9 9 8 8 7 7 8 7 7 7 7 8 8 8 9 10 9 9 9 7 7 4 2 3 2 1 4 3 3 4 2 4 4 3 1 2 3 4 2 5 4 4 1 5 2 0 3 8 8 1 3 1 4 4 4 3 2 2 3 1 2 1 1 4 3 1 3 1 1 8 7 3 4 1 3 2 2 2 6 9 8 9 9 7 7 7 8 8
10 10 9 8 8 8 7 7 6 7 8 8 10 9 8 8 8 9 7 4 3 2 1 0 1 1 3 2 2 3 3 1 2 1 1 2 2 6 6 4 4 5 4 4 2 2 7 4 1 1 3 1 1 3 3 2 2 3 2 2 1 3 1 2 4 2 2 2 5 6 6 13 7 3 2 3 3 2 5 9 10 8 6 7 6 8 9 9
13 11 9 9 9 9 7 6 5 7 8 9 10 8 8 8 6 4 4 2 1 1 1 1 2 2 2 1 4 3 2 0 1 1 2 2 1 3 1 3 0 3 3 4 5 2 4 1 3 2 2 3 3 5 4 3 3 3 4 3 3 3 6 6 3 3 3 1 6 6 12 17 15 14 12 10 7 6 10 11 13 12 10 8 7 8 10 9
11 12 11 10 9 7 7 7 6 7 7 10 8 6 7 6 2 1 3 2 2 3 3 5 5 7 1 5 4 3 1 2 1 2 4 2 2 2 5 4 4 7 3 2 2 1 2 3 1 3 6 5 8 8 6 3 3 4 5 2 0 3 3 3 2 2 3 4 7 10 11 14 14 12 12 13 6 8 11 11 11 12 10 11 10 10 9 10
11 11 11 10 9 8 6 5 6 6 6 6 3 1 1 2 2 2 1 0 3 2 2 2 3 4 3 1 4 2 2 3 3 2 1 1 3 6 6 2 4 4 4 4 3 3 3 4 5 5 8 8 7 5 4 4 4 7 4 2 1 3 8 1 2 2 1 3 12 13 13 17 18 15 16 16 4 5 10 13 13 12 10 10 11 12 12 12
12 11 11 10 10 8 8 8 6 4 3 2 2 1 3 5 4 2 3 3 3 1 4 2 3 1 2 3 3 6 5 2 4 2 2 1 4 6 2 2 4 5 2 2 2 1 2 5 6 9 3 3 4 6 8 7 2 2 3 3 3 2 7 3 3 2 2 4 5 3 6 13 16 15 15 12 9 15 14 15 15 16 13 11 13 15 14 13
13 12 11 11 10 10 8 7 5 1 2 1 1 3 3 2 2 2 1 3 2 1 0 2 2 1 0 2 1 2 2 4 2 2 2 2 3 6 3 5 6 8 4 4 3 3 4 7 8 3 7 7 7 5 3 3 4 3 3 2 2 5 6 5 4 2 2 3 10 8 10 14 15 16 17 15 15 14 15 15 16 13 12 12 12 14 14 9
13 13 12 11 11 11 10 7 6 3 2 2 2 1 3 2 2 2 1 3 2 2 2 2 3 5 1 2 1 2 3 3 6 6 5 3 4 2 8 6 8 3 3 7 8 5 5 6 6 8 6 9 5 3 5 4 1 3 3 3 6 1 1 4 4 3 4 5 5 4 10 13 14 16 21 21 16 15 15 16 15 12 15 18 18 14 11 13
14 13 13 12 11 12 10 8 7 1 2 3 3 5 1 1 0 1 1 1 2 2 3 2 3 2 5 4 6 6 3 2 2 10 1 5 8 3 6 6 6 5 8 10 11 10 6 4 2 8 7 8 7 5 7 5 5 3 5 5 4 3 5 5 3 3 5 2 2 9 12 13 12 14 12 5 1 7 14 10 12 14 16 17 13 12 13 16
14 14 14 13 12 10 10 11 3 3 3 1 5 6 4 3 1 1 1 1 2 2 1 2 3 5 4 3 2 8 2 2 4 2 5 6 7 5 3 2 2 7 6 5 2 4 7 3 6 7 5 5 7 6 8 7 5 3 7 11 8 6 6 1 3 8 6 4 4 3 8 5 3 9 10 7 4 9 9 7 11 13 12 10 13 16 13 13
15 15 14 14 12 12 12 3 3 5 3 4 4 2 5 4 1 2 0 3 5 3 3 6 6 3 5 4 5 3 6 6 2 0 3 1 3 2 4 3 1 7 8 7 6 3 2 4 5 6 7 6 5 5 3 6 5 4 2 8 13 5 1 1 0 1 4 5 2 3 3 11 3 7 7 5 7 15 10 8 15 14 10 8 10 10 9 10
14 15 16 15 15 15 6 3 5 7 1 4 1 2 4 4 1 2 2 0 7 7 8 2 1 1 1 4 8 5 6 5 2 4 3 2 4 3 5 5 3 4 3 4 2 7 5 4 4 3 6 6 6 6 6 11 5 4 2 1 3 4 6 4 3 5 6 4 5 5 4 9 13 8 13 13 13 15 14 12 14 13 13 11 10 9 8 7
13 15 16 17 17 16 2 6 8 5 3 2 2 3 4 3 1 1 1 2 5 6 4 3 1 2 0 3 3 4 3 3 7 5 3 2 1 3 3 8 10 10 6 5 9 2 6 7 8 8 6 5 8 3 6 10 6 1 1 1 5 5 4 4 3 2 1 6 8 7 6 3 9 2 1 3 8 12 13 12 12 11 7 6 6 5 4 4
11 15 16 17 19 12 4 5 6 4 1 3 4 5 4 4 2 2 2 6 2 3 2 6 3 2 3 1 3 3 2 4 1 4 3 1 5 1 7 8 4 6 2 6 8 2 2 2 6 7 7 8 4 3 2 11 7 1 4 7 7 6 5 2 2 1 2 1 10 8 9 4 17 6 6 1 4 9 9 8 9 7 5 4 3 3 2 2
5 13 17 17 15 6 1 2 4 2 3 5 6 6 6 2 2 4 3 8 3 4 2 2 4 8 8 13 5 3 3 2 2 3 2 4 2 2 5 1 4 5 5 1 2 3 1 1 3 3 7 2 6 6 3 3 5 12 6 8 5 5 3 2 3 1 1 5 7 14 13 5 10 5 8 9 6 4 3 4 5 4 5 1 3 2 1 2
1 7 15 18 10 6 6 5 5 3 3 3 7 7 5 3 3 5 8 4 4 2 3 3 3 6 13 14 8 0 3 1 3 6 6 2 2 4 5 5 3 3 1 2 5 3 1 2 3 1 3 4 5 8 7 3 5 6 3 4 4 2 2 2 0 1 3 9 2 3 9 6 9 4 5 3 2 2 4 5 6 4 4 4 2 1 0 1
1 4 12 12 4 8 12 6 8 7 7 5 1 2 4 5 4 9 6 7 3 7 9 5 1 6 12 1 3 9 9 3 4 7 9 9 9 10 11 12 8 4 5 10 6 6 5 6 2 2 3 4 6 9 5 4 2 2 4 5 4 2 1 3 2 5 9 8 2 2 3 4 18 14 5 8 8 8 8 8 7 6 7 2 3 3 1 1
2 2 10 12 8 8 4 2 9 7 5 5 6 4 4 3 10 8 8 9 4 4 4 3 8 9 11 7 6 5 4 8 4 5 3 1 5 9 4 3 9 4 8 8 5 3 3 4 2 4 2 5 8 9 6 2 7 7 10 9 6 5 4 6 3 2 4 5 5 4 4 10 12 10 14 21 18 13 7 9 10 9 10 8 4 4 2 2
2 4 4 8 8 6 4 6 7 12 10 2 8 4 2 7 7 9 14 5 0 3 5 4 6 3 11 9 5 11 7 1 10 5 5 7 6 8 9 10 4 4 2 4 10 9 6 6 10 12 6 9 10 13 10 6 12 13 4 10 7 6 4 5 4 6 6 2 2 4 3 6 2 1 2 9 8 7 7 7 7 8 10 10 3 2 4 4
2 4 4 5 7 4 7 7 9 11 9 8 6 9 11 10 5 7 11 6 1 2 4 1 11 9 6 3 1 5 3 5 4 7 6 8 9 8 9 13 10 5 2 6 4 2 12 6 3 9 3 13 14 2 6 7 3 3 0 4 1 10 3 8 1 1 1 2 2 5 7 3 6 4 4 3 5 8 7 9 5 11 12 11 7 8 7 5
2 3 5 3 4 5 7 7 9 10 10 8 8 7 11 9 7 5 5 5 2 5 7 6 4 8 5 6 3 10 1 1 6 4 3 8 2 8 8 3 11 17 10 11 4 4 4 7 3 1 1 10 6 3 3 3 9 7 6 8 5 5 3 3 1 3 2 1 10 4 8 10 6 12 15 14 7 9 3 5 7 12 14 10 12 7 4 5
4 4 6 5 5 7 8 10 9 8 8 10 6 9 7 4 3 3 1 9 5 13 9 9 7 8 9 8 6 8 6 5 5 7 8 4 6 10 6 9 2 11 15 9 2 3 5 1 1 4 7 3 3 3 3 5 1 9 7 8 3 1 4 3 7 1 3 9 7 2 9 12 2 11 5 0 8 11 9 11 11 11 9 9 12 1 4 6
4 3 2 7 7 9 9 9 9 6 6 9 10 11 3 5 3 5 2 4 4 9 6 10 4 9 6 9 9 9 6 8 8 6 6 11 6 10 10 4 9 14 18 4 4 1 3 5 4 2 4 3 1 2 2 3 5 2 1 4 8 4 6 5 2 7 5 4 5 4 5 9 10 14 2 5 9 11 13 14 12 13 13 14 8 3 5 4
2 2 4 7 8 10 9 11 10 10 5 6 5 7 4 7 2 5 4 4 1 5 11 9 8 8 6 9 4 6 13 11 12 11 8 6 7 9 15 11 8 15 15 12 6 2 2 7 2 2 2 2 2 7 11 8 1 2 2 3 3 2 5 7 7 1 2 8 0 6 2 11 7 7 8 14 13 12 12 9 11 15 13 8 7 5 6 7
3 4 6 5 11 12 11 11 6 5 4 7 6 5 3 7 4 4 6 7 3 4 3 3 4 2 6 3 7 7 9 6 11 10 10 7 11 3 9 12 5 6 10 17 7 3 6 2 8 4 4 3 6 9 13 13 11 6 7 8 4 2 4 3 1 3 4 3 3 4 9 11 7 9 9 11 11 12 12 12 9 7 8 8 5 5 7 7
2 3 1 3 12 12 11 8 5 7 5 3 4 5 7 5 6 5 3 2 3 4 2 5 2 5 3 4 4 3 4 7 6 7 8 6 10 5 9 10 7 7 6 7 10 6 3 5 8 5 4 9 6 1 3 9 15 15 16 15 16 10 6 6 6 4 0 3 4 2 11 13 5 4 7 10 6 4 5 8 7 7 8 3 2 5 6 7
4 6 3 8 14 18 11 9 5 4 3 8 9 9 7 4 4 5 6 3 3 2 1 2 4 7 5 6 5 2 3 4 6 7 6 9 9 9 5 3 7 14 13 10 14 13 6 2 4 6 9 8 2 1 2 4 5 2 3 7 10 11 10 8 10 4 0 3 2 2 4 17 2 4 3 1 2 3 2 3 5 4 3 3 3 4 5 5
5 6 3 8 14 15 10 8 6 6 6 5 6 3 6 3 6 6 10 5 7 3 2 5 6 7 7 9 10 5 6 3 4 8 1 4 6 6 1 3 5 8 5 1 5 1 5 3 2 7 3 0 1 1 2 3 2 4 5 1 3 11 11 8 5 3 7 4 5 5 5 15 3 1 0 2 2 3 2 4 6 4 4 3 5 3 3 4
4 4 0 3 13 13 14 12 13 12 12 5 6 7 7 5 8 7 10 10 8 5 7 5 1 6 2 3 3 7 9 4 4 9 7 5 5 3 2 7 10 8 10 8 9 10 6 5 8 5 3 2 2 1 2 2 3 4 4 5 9 9 11 2 4 0 4 9 12 8 12 16 0 1 1 1 3 4 4 4 6 6 4 3 3 6 4 6
2 0 2 2 8 13 10 7 9 10 13 15 11 13 9 4 7 13 12 10 7 4 6 7 10 6 5 2 2 2 4 11 3 4 10 1 4 3 2 5 11 9 5 4 5 7 7 7 9 9 11 11 9 11 12 9 9 7 5 11 13 13 11 4 8 6 10 8 16 11 11 18 4 1 3 5 3 3 5 3 3 5 5 5 4 4 6 3
7 6 5 5 1 1 7 4 3 9 13 13 13 14 12 10 3 6 10 11 13 9 10 3 6 9 8 7 4 4 4 5 8 1 4 3 2 1 0 1 4 3 4 5 7 4 2 4 6 14 14 15 13 2 3 11 7 8 8 11 12 13 14 11 3 5 11 15 10 10 16 22 18 5 5 7 1 5 6 6 7 5 6 6 6 3 3 4
1 7 6 6 2 7 4 3 4 7 9 12 7 7 14 14 7 1 8 7 11 11 7 9 5 10 8 11 11 11 10 8 6 5 6 5 2 3 2 2 3 5 4 4 2 5 1 2 11 16 16 14 14 1 4 11 13 15 14 12 14 13 15 14 13 18 17 9 14 18 20 17 24 18 9 5 6 7 7 4 3 3 6 4 3 4 5 5
7 3 8 2 4 6 10 12 9 8 8 11 8 7 11 14 14 9 6 9 7 12 8 4 10 14 12 17 11 9 9 13 9 7 10 10 7 3 2 1 4 1 6 2 6 4 3 8 6 9 15 17 13 3 5 4 5 8 14 13 15 17 15 15 19 22 19 13 18 15 15 16 23 21 14 14 10 10 8 7 7 3 3 2 3 5 5 6
5 4 2 2 6 2 7 3 11 12 10 7 4 10 11 12 15 14 7 8 8 9 14 8 14 17 15 13 12 10 11 7 9 12 7 6 12 6 4 2 2 2 5 1 2 1 2 5 4 3 11 14 17 11 8 9 5 3 5 10 12 14 17 20 21 22 22 20 16 16 20 23 20 23 14 9 13 12 8 6 1 1 7 7 6 6 7 8
9 8 3 2 2 1 2 3 6 8 12 11 8 7 9 13 13 10 9 10 7 12 13 18 14 14 15 14 14 13 12 13 11 11 12 12 5 7 8 8 2 2 2 4 5 2 5 6 8 2 5 11 16 14 5 7 7 10 8 6 10 14 18 21 19 16 16 18 19 20 24 23 21 22 11 11 8 6 6 10 8 7 9 10 9 8 8 9
2 1 1 3 4 4 2 3 5 8 6 6 9 10 7 8 11 9 10 8 12 9 11 19 16 11 12 14 15 17 14 14 15 15 10 13 11 8 8 3 9 5 3 3 1 1 4 4 3 4 6 11 14 15 16 9 7 8 10 12 15 18 17 14 12 16 16 21 23 20 19 18 24 15 13 15 5 8 11 11 11 9 11 11 12 12 11 11
4 0 1 1 5 6 7 3 2 4 11 8 8 10 8 10 7 6 6 4 9 9 10 16 15 11 12 14 17 17 17 14 12 11 9 9 12 7 12 8 12 10 7 7 2 3 5 3 4 5 8 12 11 5 11 8 7 9 13 22 24 20 16 12 14 17 22 18 15 13 18 20 20 18 14 18 11 13 12 10 10 13 17 15 16 19 18 14
Wind_Direction
151 144 120 114 120 118 104 82 69 71 70 57 40 31 25 19 12 8 3 355 350 345 338 339 338 335 339 339 339 343 327 183 151 238 118 50 322 305 302 302 301 306 357 229 158 180 160 44 112 332 150 35 -0 152 340 59 8 253 197 197 200 110 194 159 190 187 21 195 161 175 187 195 186 166 151 179 182 254 136 226 181 226 239 251 99 87 120 131
160 145 141 138 111 90 87 69 66 56 45 43 42 32 22 20 7 354 352 350 343 341 338 335 337 335 335 339 343 340 326 173 100 83 40 21 313 308 304 297 306 315 216 236 168 187 167 120 83 169 158 107 286 53 248 78 307 226 111 225 232 165 102 181 190 156 196 59 161 160 174 228 193 165 156 213 184 192 223 225 207 232 214 179 157 144 163 158
169 172 167 115 103 116 106 109 82 69 45 46 51 42 28 19 12 355 345 346 337 335 334 334 336 334 336 339 339 344 283 86 166 74 76 11 316 311 306 301 299 328 232 286 276 185 198 126 138 133 37 118 358 110 259 44 307 50 240 203 225 101 68 249 158 152 354 311 154 155 161 230 70 195 120 229 175 165 228 222 194 232 226 192 174 166 164 172
193 188 164 149 154 144 135 125 118 107 74 45 36 37 27 19 11 359 342 343 334 331 331 332 333 336 335 337 349 320 259 133 173 89 65 325 317 313 308 305 305 280 308 54 69 93 81 101 100 103 113 76 95 274 174 29 262 125 232 234 79 95 199 118 225 88 41 319 154 140 112 206 154 170 190 186 228 230 238 236 235 226 229 174 159 164 168 177
183 182 151 174 172 154 137 110 79 58 54 37 27 18 13 9 1 357 348 339 331 328 328 330 334 333 335 336 345 240 221 210 154 288 35 324 319 317 321 318 341 255 180 134 123 75 96 75 117 43 30 120 62 114 47 36 354 139 22 15 81 146 119 82 170 62 155 334 142 129 166 194 98 166 218 202 223 235 230 233 220 247 16 132 162 169 169 182
179 171 165 169 164 148 93 74 40 34 27 21 8 357 3 357 350 352 344 337 329 325 327 331 333 333 330 333 283 217 233 213 45 50 334 331 317 320 344 21 38 34 132 71 86 88 197 100 194 128 108 121 358 158 77 338 338 164 95 202 214 354 45 80 156 177 205 157 165 180 179 96 186 203 203 233 233 234 57 53 6 348 43 66 156 157 178 185
183 175 165 165 169 167 152 114 328 355 357 352 344 342 350 346 341 343 335 331 327 324 326 330 332 331 329 307 195 230 98 40 221 53 356 331 322 320 19 63 82 191 233 182 73 189 43 118 107 105 105 82 27 81 43 303 246 300 126 147 138 285 15 21 39 112 209 207 180 59 87 203 159 229 110 232 239 241 99 48 2 345 6 165 169 180 186 190
197 182 185 176 195 194 227 78 290 322 318 323 324 331 334 336 339 334 335 325 325 322 325 332 333 331 334 171 226 105 78 92 48 70 336 328 320 317 193 301 79 241 66 36 45 133 152 117 148 183 56 135 140 146 115 152 30 136 124 173 102 231 5 7 116 168 238 229 34 173 187 201 219 283 43 247 246 238 192 127 239 327 203 194 207 192 198 193
192 188 195 193 193 225 250 256 277 290 303 308 316 317 325 334 332 333 330 330 321 322 324 332 334 332 271 259 176 155 130 59 3 333 332 335 328 13 169 200 358 120 111 76 348 56 208 139 117 231 154 132 211 127 255 215 121 7 74 128 135 112 94 93 126 170 194 124 194 180 192 54 348 314 258 253 251 95 68 213 180 216 219 213 214 207 198 197
202 198 195 194 210 230 241 245 263 282 295 300 306 311 318 328 327 328 328 329 321 320 326 336 336 331 258 160 75 212 110 295 304 322 329 297 288 269 68 55 326 101 135 9 55 79 227 168 215 156 111 68 180 76 298 303 77 89 113 98 102 78 158 166 203 132 132 164 198 228 201 177 73 251 264 137 21 14 183 204 163 227 235 227 223 216 211 209
205 205 199 200 217 227 237 248 268 278 283 293 297 301 314 318 320 325 326 322 321 315 327 335 337 304 245 279 203 166 91 215 21 330 323 270 297 41 26 359 339 84 99 72 63 346 6 120 135 130 298 117 150 67 5 75 128 60 119 143 92 86 77 115 134 87 241 144 248 286 249 325 264 166 246 117 86 44 218 214 213 224 236 236 231 232 226 228
204 203 206 207 216 215 232 256 282 293 289 291 293 299 303 303 318 319 320 319 314 316 322 333 335 320 115 71 159 53 302 344 354 2 16 303 56 16 323 341 291 180 203 101 47 8 302 119 171 290 145 209 114 149 81 166 65 105 227 174 54 124 184 75 195 48 309 113 175 108 261 238 185 237 234 103 122 124 238 241 228 234 239 239 239 236 232 229
196 198 207 210 216 227 235 265 283 299 305 299 296 291 290 298 311 316 313 316 313 313 319 324 325 256 225 166 76 235 299 328 223 55 74 54 115 106 65 21 52 44 352 117 110 17 117 134 257 92 33 151 114 338 117 173 62 198 79 2 172 191 224 97 128 56 224 94 169 236 263 233 212 229 210 135 121 153 247 244 233 237 237 237 231 237 242 230
188 193 199 209 216 230 235 249 283 305 313 313 303 298 297 300 305 308 308 303 312 313 317 317 321 260 217 79 107 357 297 69 212 150 22 306 278 41 60 48 52 55 23 81 67 68 0 226 99 101 59 48 119 208 147 80 301 184 42 261 347 242 179 90 48 67 224 100 223 236 258 263 199 221 59 71 228 238 261 256 242 236 238 237 235 237 241 238
187 187 194 202 217 234 252 267 286 303 315 316 309 305 304 301 303 301 303 303 307 321 317 327 257 225 173 95 313 71 121 237 137 22 359 310 121 98 68 68 57 49 59 77 106 91 289 255 130 84 77 294 114 167 89 104 51 42 213 177 149 248 117 117 109 181 240 106 277 212 264 262 274 265 86 42 142 190 247 260 259 249 240 237 240 242 244 245
183 188 190 197 215 234 241 255 271 291 307 313 309 302 294 296 301 302 301 298 316 331 264 249 38 335 134 196 118 130 195 184 151 346 358 297 316 110 104 98 122 75 141 65 64 210 40 62 59 23 119 184 181 142 123 157 143 41 283 149 194 226 319 290 101 2 21 40 165 230 266 33 260 26 40 50 149 180 254 267 264 257 251 244 242 242 246 252
186 186 194 195 207 223 237 250 268 288 300 303 312 301 295 293 309 309 300 311 309 235 242 0 115 302 248 72 132 219 151 84 335 215 42 36 273 139 135 96 67 84 73 144 76 204 18 66 281 209 13 68 3 159 171 222 217 192 38 253 85 249 121 242 106 107 43 283 208 220 251 250 267 278 194 163 151 164 259 268 270 263 247 242 243 242 243 242
188 187 191 198 206 216 227 246 268 293 296 308 310 306 299 307 324 304 212 216 244 251 175 162 234 225 194 301 203 157 35 259 70 14 331 11 62 97 59 120 152 91 87 116 24 30 337 104 271 118 120 142 172 186 210 213 199 171 170 214 202 209 231 275 270 95 203 130 253 225 244 261 258 266 272 264 165 238 260 264 269 272 265 254 238 242 242 240
190 186 187 196 205 217 222 235 251 272 303 320 310 289 269 278 241 252 53 344 200 149 188 176 186 199 221 151 61 95 230 40 254 251 129 138 50 108 87 63 83 148 123 211 74 268 21 108 216 149 202 179 198 197 219 100 115 151 180 167 175 244 197 225 206 102 242 226 239 233 248 263 263 257 258 259 205 237 260 266 266 260 257 256 250 246 241 236
194 191 192 193 202 213 223 233 250 278 337 335 2 330 196 181 148 146 78 259 266 356 358 38 71 60 96 283 135 34 277 218 165 24 7 342 193 131 55 0 80 64 145 211 112 71 317 189 200 201 222 202 190 198 68 95 78 89 91 157 191 253 274 154 137 78 240 270 252 249 253 265 271 271 271 272 196 224 248 255 253 250 247 247 247 246 243 239
196 195 193 189 190 203 214 226 236 263 51 15 331 255 192 166 152 231 171 238 77 149 19 23 11 15 36 92 129 172 136 81 4 98 118 43 297 178 151 171 149 181 67 354 105 48 252 220 222 232 48 82 157 112 115 91 55 148 150 215 203 187 266 86 102 97 175 238 275 145 267 268 274 275 270 266 256 264 250 247 247 249 242 242 245 249 244 245
195 195 190 188 184 188 206 221 212 149 96 348 275 238 332 263 355 353 75 226 143 98 60 69 223 141 56 293 354 311 328 108 120 149 111 235 128 206 151 201 166 204 113 142 128 161 198 211 230 157 96 86 93 134 144 166 141 114 248 157 276 247 275 287 71 140 176 189 266 278 267 266 270 277 276 264 253 257 257 248 255 261 259 249 244 244 249 245
190 190 189 185 186 184 189 191 185 142 307 271 221 274 242 340 326 290 243 82 222 72 197 186 206 218 152 357 237 238 196 175 177 191 190 216 114 281 137 174 188 114 142 185 195 175 225 228 237 117 136 115 79 133 143 116 144 186 169 178 234 56 323 267 127 97 160 224 304 321 292 275 266 261 262 261 253 257 258 258 258 251 255 255 249 246 246 246
192 186 185 186 180 184 175 165 144 166 240 249 255 231 350 279 159 292 262 254 298 227 204 217 264 152 191 169 171 167 208 170 132 185 109 189 167 118 169 180 127 155 190 188 211 205 204 77 9 160 163 167 143 154 162 180 212 208 216 223 242 200 221 243 336 298 162 238 356 283 277 263 226 244 255 253 302 260 265 266 260 251 242 249 262 265 251 255
191 186 182 180 178 169 158 133 170 216 142 225 249 238 189 203 243 287 278 129 197 233 76 295 167 239 164 55 139 193 192 49 254 23 149 195 128 154 160 38 175 203 179 160 2 281 256 114 123 130 162 156 132 171 193 184 236 190 220 221 231 231 241 115 344 338 288 253 126 306 316 276 179 232 254 280 283 265 249 251 257 250 241 233 243 250 251 243
190 183 179 176 169 150 144 171 204 151 166 234 221 201 164 174 242 318 235 75 265 134 56 212 147 206 122 139 113 158 79 231 41 66 129 288 3 126 103 150 330 206 157 161 205 257 252 110 177 154 159 165 194 202 179 201 223 230 234 205 228 225 45 126 203 310 272 284 84 276 294 285 174 230 236 227 256 268 260 242 263 263 250 223 233 244 238 237
192 182 178 173 161 147 160 230 129 150 195 254 156 155 164 164 240 310 210 19 279 168 165 29 198 186 12 142 153 115 202 200 94 106 146 343 189 1 206 152 118 27 109 140 16 224 147 169 146 121 134 165 175 207 197 196 194 220 56 122 171 160 203 211 201 215 275 348 243 169 211 282 281 217 227 244 259 270 277 268 263 261 261 256 252 253 250 245
193 183 179 172 163 171 334 119 145 173 219 98 135 124 143 152 155 253 238 254 257 102 143 210 263 345 20 118 337 208 -0 73 146 198 354 310 276 116 292 176 186 174 170 166 223 54 181 172 187 169 186 183 212 180 142 190 198 26 26 226 143 171 169 148 185 225 322 355 287 140 168 248 270 115 69 172 250 256 259 257 260 262 261 260 273 287 295 288
194 184 179 173 169 176 116 154 177 205 143 126 115 131 113 118 269 216 145 227 99 77 17 107 280 95 61 139 114 65 138 6 329 66 313 20 18 251 202 185 192 139 150 215 237 115 308 280 204 195 172 210 108 15 187 173 200 130 128 90 88 86 72 127 133 172 246 327 268 149 193 234 280 166 176 205 221 263 260 254 259 273 297 305 327 334 327 303
216 196 182 173 168 165 164 45 221 18 94 116 130 127 121 175 163 185 121 239 115 195 74 88 195 172 158 153 187 47 165 49 45 133 66 167 97 43 21 340 125 136 198 275 315 40 21 217 323 183 218 90 110 53 22 24 56 130 172 105 85 68 91 89 65 67 256 240 257 153 193 217 287 187 190 172 198 216 225 264 269 279 279 60 58 79 351 330
354 206 192 170 181 172 117 210 188 72 72 106 145 150 145 37 192 160 208 196 33 96 80 156 164 125 152 157 185 239 75 18 150 168 140 176 118 53 159 97 67 94 51 302 252 140 149 77 175 233 58 113 102 87 38 46 125 152 151 136 135 138 127 172 139 147 227 256 118 299 191 208 235 241 238 225 21 270 239 242 267 282 264 131 128 110 35 286
330 205 191 183 140 132 181 207 139 134 134 153 11 117 172 180 328 196 210 74 256 170 174 160 44 181 172 119 63 165 164 86 167 186 167 178 166 172 193 187 154 170 238 209 220 86 221 209 115 86 276 148 143 97 74 93 240 217 145 154 198 217 112 217 177 218 199 239 110 68 159 307 239 246 338 298 278 263 229 240 260 271 275 208 149 142 176 290
193 217 192 193 155 188 210 83 126 133 117 117 120 159 120 150 208 205 237 149 244 109 183 55 155 174 166 143 189 137 8 179 153 196 82 306 187 217 242 261 196 171 224 185 182 142 233 83 202 158 113 245 186 158 138 168 201 197 187 181 183 219 213 258 203 337 329 277 122 153 152 252 284 293 228 246 244 244 243 230 248 259 266 270 153 162 182 209
230 163 179 200 194 193 112 137 139 135 130 109 118 134 169 190 219 199 209 190 33 348 67 110 113 78 168 180 176 161 169 279 163 177 189 166 195 205 218 237 205 241 73 82 198 185 235 236 212 147 223 155 206 212 176 161 168 199 197 177 204 182 189 221 191 230 244 282 108 202 147 236 174 142 344 258 269 271 264 262 247 259 269 265 213 193 190 222
245 187 195 201 211 180 143 156 148 145 131 144 155 171 193 212 213 197 217 179 77 30 62 99 136 145 192 304 347 217 334 169 194 133 187 161 201 213 189 206 208 195 107 203 208 155 220 263 60 171 11 150 192 197 97 99 103 164 299 15 291 228 66 254 356 276 2 336 254 165 227 238 219 15 272 215 271 258 243 255 275 271 259 265 252 220 209 204
170 215 192 196 195 172 147 156 153 144 145 161 158 183 204 190 208 157 225 97 69 141 125 93 87 161 184 191 16 196 49 306 162 176 210 216 267 210 211 202 193 193 172 203 123 184 61 237 80 77 38 190 179 101 177 162 208 170 144 213 211 5 198 84 99 79 126 262 256 224 269 252 277 254 225 231 207 241 219 252 249 248 252 256 264 245 140 190
227 168 200 188 206 154 155 161 159 158 164 168 168 208 202 234 191 120 113 181 163 130 153 154 199 182 175 202 185 189 193 111 162 180 204 145 263 226 216 228 184 186 213 194 197 254 214 168 22 157 202 244 41 298 79 21 21 106 211 203 78 92 2 184 242 142 216 241 267 124 243 272 1 289 66 195 234 246 241 241 235 240 245 247 247 126 175 200
211 231 259 206 181 155 158 155 147 158 169 177 194 203 78 215 217 190 96 112 111 170 179 205 189 184 193 182 193 176 189 198 167 193 209 166 244 175 179 210 184 204 206 230 255 162 157 252 157 326 17 62 5 180 132 61 346 294 142 118 179 195 211 187 217 234 224 227 263 240 268 268 232 255 189 198 201 232 239 238 234 242 241 238 240 200 194 206
266 266 240 199 157 157 150 157 168 165 169 193 202 212 228 240 79 197 167 109 3 169 208 203 206 202 189 195 135 166 164 191 163 192 176 182 229 176 192 173 207 202 198 179 220 132 209 227 218 355 171 83 172 184 202 177 115 48 114 177 4 304 231 168 206 318 231 257 158 272 267 269 192 222 198 238 226 224 228 222 226 231 237 243 236 177 188 200
212 193 239 174 168 152 147 159 170 168 186 196 196 228 162 206 207 191 176 169 192 167 247 203 252 153 197 219 159 163 216 230 168 193 208 166 214 103 191 184 175 162 186 189 200 123 208 136 250 93 300 183 181 202 214 162 174 181 197 195 169 205 354 342 352 204 222 240 243 292 287 268 243 177 197 224 223 223 220 226 226 242 247 244 246 186 187 200
232 258 242 119 154 146 135 150 179 194 194 224 209 182 169 194 179 185 140 233 210 348 187 223 218 202 155 130 224 228 177 194 202 202 206 209 200 231 192 184 142 139 144 178 208 190 206 162 224 120 173 210 223 149 262 195 184 180 185 196 190 158 182 187 229 88 252 228 225 195 258 274 273 121 186 219 219 224 232 225 237 234 242 250 245 242 218 196
197 223 209 161 154 150 149 177 202 186 210 211 211 183 196 129 146 170 159 204 195 172 328 126 219 225 216 222 214 138 181 219 202 208 222 227 201 232 18 235 172 144 149 179 200 199 184 150 205 191 204 207 93 13 359 331 351 344 263 224 193 195 186 184 221 175 144 237 20 274 328 265 265 136 209 212 278 208 157 262 243 236 261 271 216 214 251 256
213 226 8 177 161 160 160 203 180 189 213 217 87 64 120 177 184 172 176 179 193 159 148 203 200 191 214 211 203 183 171 230 187 215 220 251 274 219 124 97 114 168 120 34 37 348 78 168 198 243 77 348 61 91 72 23 27 279 240 83 172 205 202 208 233 160 191 142 217 215 217 265 219 324 141 303 248 290 241 205 246 273 261 277 281 202 173 275
211 229 171 255 181 177 177 202 197 204 214 203 196 206 189 189 163 157 195 187 181 160 189 179 110 198 212 118 159 200 163 219 226 219 263 219 268 52 150 143 162 180 182 193 193 157 177 209 211 212 234 188 177 162 207 89 200 232 223 176 217 219 211 216 59 103 237 187 216 188 233 252 69 236 52 229 290 277 241 220 205 248 255 233 264 284 193 168
174 73 261 263 200 199 210 190 205 199 210 212 195 203 195 188 207 190 180 187 176 174 173 221 206 160 192 149 157 75 176 201 261 233 242 288 252 53 333 186 186 198 220 27 38 179 195 169 180 207 214 219 211 206 208 185 192 195 219 214 201 203 192 135 225 197 233 211 217 222 245 259 224 356 217 231 221 272 272 236 226 229 258 273 215 219 300 289
172 214 176 220 145 358 236 264 340 219 213 211 217 219 201 203 175 224 191 202 183 188 203 155 176 173 183 162 169 183 212 237 217 255 202 250 272 335 333 322 249 254 0 121 116 137 180 329 223 204 212 226 233 55 348 110 135 188 216 184 189 201 201 204 233 221 221 233 237 223 237 257 256 192 220 225 180 239 229 224 223 228 231 232 274 284 211 220
245 217 168 198 117 242 240 245 209 214 224 193 218 183 221 217 188 147 194 217 198 198 204 204 170 183 194 190 205 217 205 212 225 261 231 245 273 260 60 85 25 302 309 69 82 113 27 208 218 233 239 248 255 171 206 152 175 208 211 202 194 190 195 197 206 226 221 233 248 236 233 247 263 250 225 214 237 251 259 259 279 260 245 242 204 235 250 252
229 240 206 209 205 189 211 232 222 219 222 199 215 194 218 217 209 208 169 222 179 200 202 212 211 204 188 198 193 219 195 219 199 210 233 238 254 252 290 154 194 94 58 1 325 164 166 230 221 223 248 251 261 105 184 218 218 204 208 199 194 196 193 200 219 228 224 218 236 243 233 239 254 259 236 235 214 226 233 237 233 283 4 249 220 206 234 243
251 331 272 297 201 241 222 261 200 213 225 203 229 222 217 208 216 209 173 185 208 204 199 219 209 212 213 203 201 221 201 207 215 216 213 203 212 213 235 284 188 56 123 127 188 246 128 240 230 191 245 255 256 241 190 208 207 219 222 221 203 188 194 204 217 222 222 231 242 259 256 249 251 259 245 232 252 230 211 223 327 226 244 228 206 223 225 229
202 206 217 102 16 110 136 124 164 181 218 203 213 213 221 217 217 192 190 180 197 208 193 220 216 204 211 215 213 217 209 207 202 211 211 214 225 185 231 218 125 344 139 180 174 262 169 239 195 142 236 254 253 255 236 206 242 247 227 202 220 216 212 209 218 227 231 243 245 247 251 259 254 253 281 259 223 198 204 205 218 226 237 249 243 226 219 226
13 335 14 150 176 205 154 141 161 185 194 189 203 221 221 221 231 197 204 201 188 183 195 214 219 215 208 217 215 223 221 217 215 219 200 187 220 188 187 255 157 145 145 136 160 205 168 266 56 152 223 249 246 244 249 237 225 246 251 229 220 217 220 217 226 222 219 228 233 241 253 257 260 256 257 259 156 209 208 213 220 226 228 231 239 239 223 223
228 327 297 169 241 190 208 141 150 170 223 196 198 205 203 207 207 196 233 226 247 243 205 206 211 216 221 219 227 225 225 228 234 239 244 203 218 204 199 194 160 157 173 176 129 148 183 191 193 185 217 237 249 202 246 253 247 243 240 236 224 223 225 222 225 229 231 230 236 233 234 241 253 261 254 255 226 218 216 211 214 226 232 228 234 243 246 246